STARLINK-3701, 52095

Orbit data source: Space-Track

STARLINK-3701, 52095 is a payload satellite owned by SpaceX/Seattle (US) in LEO that was launched on Sat, 19 Mar 2022 UTC via an FALCON 9 launch vehicle from the Air Force Eastern Test Range (AFETR). Payload-class satellites include a variety of spacecraft equipped with specific instruments for various scientific and technological missions. These include communications satellites like Starlink; space stations such as the ISS; scientific satellites like the Hubble; Earth observation satellites from companies like Planet Labs, Umbra, and HawkEye 360; GPS; miniature CubeSats for education and research; and military/defense satellites.

Loading next visibility...
Identifier
52095, 2022-029H
Orbit
LEO
Country
Flag of USUS
Related business
Manufacturer
SpaceX/Seattle
Mission
Operational Commercial Communications
Bus & Motor
STARLINK, Unknown motor
Mass
297 kg wet, ~275 kg dry
Launch date (UTC)
2022-03-19 (4 years ago)
Launch vehicle
FALCON 9
Launch site
Air Force Eastern Test Range (AFETR)
Object type
Payload
Rocket body
Debris
Shape & HBR
Box + 1 Pan, 10.1 m
Radar Cross Section
13.562 m², Large (>1 m²)

Expand to show TLE details & history
Last TLE update: 2 days ago

TLE from 2 days ago
0 STARLINK-3701
1 52095U 22029H   26171.41668980  .00085630  00000-0  37718-2 0  9995
2 52095  53.1611 347.4462 0001183 112.5514 159.2196 15.21105158  5784
Epoch: 2026-06-20T10:00Z
TLE epoch observation values (Epoch: 2026-06-20T10:00:01.998Z)
Latitude
-53.27601°
Longitude
-158.24059°
Altitude
521.802 km
Speed
7.602 km/s
True Right ascension
17h 21m 35s
True Declination
-53° 06' 19"
Sunlit
Object was in full shadow at epoch
Visualization orbit readout
Latitude
Unknown
Longitude
Unknown
Altitude
Unknown
Speed
Unknown
Apparent Right ascension
Unknown
Apparent Declination
Unknown
Sunlit
N/A
Visualization observer readout
Local Sidereal Time
21:25:18
Azimuth
Unknown
Elevation
Unknown
Doppler factor
Unknown
Orbital elements
Apogee altitude
503.575 km
Perigee altitude
501.947 km
Semi-major axis
6,880.898 km
Eccentricity
0.00012
Inclination
53.1611°
RAAN
347.4462°
Arg. of periapsis
112.5514°
True anomaly
159.22441°
Mean anomaly
159.2196°
Eccentric anomaly
159.222°
Mean motion
3.80255 °/min
Orbital period
94.67 mins
BSTAR
0.0037718
Loading maneuver chart data...
Computing Atmospheric mass density...
Loading historical data...
Loading historical data...
Loading historical data...
Loading historical data...
Loading historical data...
Loading historical data...
Loading historical data...

Documentation

Showing up to 5 results
|